[[{"header":{"parameterUnit":"m.s-1","parameterCategory":2,"la1":30.2991,"la2":30.254,"lo1":-89.0895,"lo2":-89.0444,"dy":0.0017,"dx":0.0017,"nx":28,"ny":28,"refTime":"2025-07-24T03:00:00:Z","depth":"0","parameterNumber":2,"parameterNumberName":"U-component_of_CURRENTS"},"data":[0,0,0,0,0,0,0,0,0,0,0,0,0,0,0,0,0,0,0,0,0,0,0,0,0,0,0,0,0,0,0,0,0,0,0,0,0,0,0,0,0,0,0,0,0,0,0,0,0,0,0,0,0,0,0,0,0,0,-0.2492,-0.2494,0,-0.2712,-0.2715,-0.2718,-0.2984,-0.2988,-0.2992,-0.2995,-0.3253,-0.3257,-0.326,0,0,0,0,0,0,0,0,0,0,0,0,0,-0.2395,-0.2396,-0.2492,-0.2494,-0.2496,-0.2711,-0.2715,-0.2719,-0.2984,-0.2988,-0.2993,-0.2997,-0.3252,-0.3256,-0.326,0,0,0,0,0,0,0,0,0,0,0,0,0,-0.2514,-0.2396,-0.2491,-0.265,-0.2666,-0.2711,-0.2715,-0.272,-0.2983,-0.2988,-0.2994,-0.2999,-0.3251,-0.3256,-0.3261,-0.3185,0,0,-0.3277,-0.3279,0,0,0,0,0,0,0,0,-0.2506,-0.2518,-0.2625,-0.2639,-0.2657,-0.2821,-0.2776,-0.2875,-0.2981,-0.2869,-0.2995,-0.3001,-0.3104,-0.3122,-0.3159,-0.3197,-0.3208,-0.3278,-0.3281,-0.3283,-0.3285,0,0,0,0,0,0,0,-0.2498,-0.251,-0.2585,-0.2626,-0.2646,-0.2742,-0.2765,-0.2797,-0.2959,-0.2879,-0.2897,-0.2911,-0.3115,-0.3153,-0.3167,-0.3212,-0.3277,-0.3282,-0.3285,-0.3287,-0.3234,-0.323,0,0,0,0,0,0,-0.2447,-0.2501,-0.2578,-0.2591,-0.2587,-0.2738,-0.2764,-0.2768,-0.2958,-0.299,-0.2906,-0.2922,-0.3142,-0.3161,-0.3177,-0.3157,-0.3283,-0.3288,-0.3291,-0.3239,-0.3233,-0.3228,0,0,0,0,0,0,-0.2444,-0.2451,-0.2569,-0.2548,-0.2569,-0.2733,-0.2736,-0.2769,-0.282,-0.2977,-0.3013,-0.2923,-0.3147,-0.317,-0.3194,-0.3167,-0.329,-0.3295,-0.3244,-0.3237,-0.3231,-0.3077,0,0,0,0,0,0,-0.244,-0.2449,-0.2436,-0.2543,-0.2568,-0.2585,-0.2731,-0.2769,-0.2816,-0.284,-0.3001,-0.3032,-0.3153,-0.3184,-0.3199,-0.3176,-0.3299,-0.325,-0.3241,-0.3233,-0.3088,-0.3066,-0.3047,0,0,0,0,0,-0.2436,-0.2415,-0.2433,-0.2443,-0.2544,-0.2582,-0.2603,-0.2744,-0.281,-0.2813,-0.2913,-0.3028,-0.3141,-0.3184,-0.3202,-0.3181,-0.3254,-0.3244,-0.3234,-0.3097,-0.3071,-0.3048,0,0,0,0,0,0,-0.2383,-0.2441,-0.2466,-0.2466,-0.2503,-0.2626,-0.2646,-0.2709,-0.2788,-0.2818,-0.2968,-0.3001,-0.3017,-0.3081,-0.3125,-0.3129,-0.3215,-0.3207,-0.3105,-0.3081,-0.306,-0.3117,-0.3304,0,0,0,0,0,-0.2345,-0.234,-0.24,-0.2393,-0.2405,-0.2503,-0.2536,-0.2612,-0.2693,-0.2738,-0.2836,-0.2922,-0.2977,-0.3017,-0.3075,-0.306,-0.3105,-0.3051,-0.3031,-0.3014,-0.3063,-0.3056,-0.3042,-0.3195,-0.3195,-0.3195,0,0,-0.2321,-0.235,-0.2349,-0.2378,-0.2428,-0.2461,-0.254,-0.2571,-0.2614,-0.2741,-0.2809,-0.2849,-0.295,-0.2965,-0.2976,-0.3027,-0.2971,-0.3,-0.2986,-0.3047,-0.3044,-0.303,-0.3018,-0.3188,-0.3189,-0.319,0,0,-0.2291,-0.2286,-0.2286,-0.231,-0.2352,-0.2406,-0.2395,-0.2476,-0.2528,-0.2546,-0.2657,-0.2666,-0.275,-0.2825,-0.2873,-0.275,-0.2856,-0.2752,-0.2716,-0.2705,-0.2695,-0.2686,-0.2646,-0.2636,-0.2751,-0.275,-0.275,0,-0.2266,-0.2281,-0.2288,-0.2307,-0.2341,-0.2372,-0.24,-0.2432,-0.2511,-0.2536,-0.2552,-0.2643,-0.2697,-0.2752,-0.272,-0.2715,-0.2722,-0.2812,-0.2684,-0.2678,-0.2672,-0.2634,-0.2625,-0.2742,-0.2743,-0.2743,-0.2744,0,-0.2257,-0.2273,-0.227,-0.2309,-0.2326,-0.2341,-0.2381,-0.2388,-0.2416,-0.2463,-0.2476,-0.2512,-0.2593,-0.2563,-0.2621,-0.2603,-0.2619,-0.2653,-0.2762,-0.2649,-0.2613,-0.2606,-0.2729,-0.2732,-0.2735,-0.2737,0,0,-0.2202,-0.2259,-0.226,-0.2312,-0.2335,-0.237,-0.2374,-0.2413,-0.2457,-0.244,-0.2483,-0.2491,-0.25,-0.255,-0.2577,-0.2553,-0.246,-0.2586,-0.2589,-0.2575,-0.2416,-0.2293,-0.2275,-0.2479,-0.2479,-0.2479,-0.2381,0,-0.2206,-0.227,-0.2279,-0.2346,-0.2395,-0.2409,-0.2434,-0.2461,-0.2468,-0.2495,-0.2473,-0.252,-0.25,-0.2526,-0.2485,-0.2501,-0.2449,-0.2483,-0.251,-0.2511,-0.2439,-0.2266,-0.2179,-0.2076,-0.2376,-0.2375,-0.2374,0,-0.2198,-0.2262,-0.2339,-0.243,-0.2447,-0.2483,-0.2545,-0.257,-0.2576,-0.2575,-0.2565,-0.2567,-0.2541,-0.2522,-0.2465,-0.2492,-0.2448,-0.2422,-0.2418,-0.238,-0.2377,-0.225,-0.2054,-0.2047,-0.2365,-0.2366,-0.2366,0,-0.2217,-0.2295,-0.2379,-0.2411,-0.2508,-0.2542,-0.2577,-0.2602,-0.2586,-0.2637,-0.26,-0.2609,-0.258,-0.254,-0.2441,-0.2474,-0.2347,-0.2392,-0.2227,-0.2218,-0.2193,-0.2182,-0.2034,-0.2333,-0.2333,-0.2333,-0.2334,0,-0.2236,-0.23,-0.2411,-0.2475,-0.2561,-0.2609,-0.2642,-0.2693,-0.2662,-0.2585,-0.265,-0.2562,-0.2582,-0.2488,-0.2437,-0.2274,-0.2333,-0.2201,-0.2179,-0.2121,-0.2105,-0.2145,-0.2191,-0.233,-0.233,-0.2331,-0.2332,0,-0.2287,-0.2317,-0.2455,-0.2582,-0.2581,-0.2678,-0.2627,-0.2574,-0.2639,-0.2525,-0.2522,-0.2508,-0.242,-0.2382,-0.2312,-0.2234,-0.2086,-0.2063,-0.1971,-0.1938,-0.1798,-0.1839,-0.1734,-0.1685,-0.1892,-0.1888,-0.1885,0,-0.2319,-0.2418,-0.256,-0.2487,-0.2534,-0.2583,-0.2487,-0.2557,-0.2441,-0.242,-0.2299,-0.2281,-0.2149,-0.2032,-0.1969,-0.1869,-0.1906,-0.1722,-0.1767,-0.1743,-0.1775,-0.1825,-0.1797,-0.1649,-0.1644,-0.164,-0.1637,0,-0.2428,-0.2502,-0.2537,-0.2433,-0.2346,-0.2284,-0.2178,-0.2111,-0.2095,-0.2011,-0.1848,-0.1803,-0.1786,-0.1686,-0.1652,-0.1579,-0.1691,-0.1635,-0.1651,-0.1591,-0.1601,-0.1558,-0.1752,-0.1602,-0.1605,-0.1608,-0.161,-0.1611,-0.2451,-0.244,-0.2377,-0.2249,-0.2117,-0.1897,-0.1791,-0.1623,-0.1471,-0.1298,-0.1346,-0.1202,-0.1396,-0.1359,-0.1316,-0.1293,-0.1391,-0.1287,-0.134,-0.1393,-0.1334,-0.1416,-0.1218,-0.1219,-0.122,-0.1221,-0.1222,0,-0.2332,-0.2208,-0.2093,-0.1884,-0.1657,-0.1675,-0.1443,-0.1288,-0.1043,-0.0897,-0.074,-0.0665,-0.0763,-0.0962,-0.109,-0.1045,-0.1059,-0.1038,-0.1129,-0.1117,-0.121,-0.1188,-0.0923,-0.0923,-0.0923,-0.0924,-0.0924,-0.0924,-0.2213,-0.1972,-0.1862,-0.1427,-0.1277,-0.0996,-0.0861,-0.0698,-0.0563,-0.0283,-0.0139,-0.0115,-0.0459,-0.0861,-0.1008,-0.0974,-0.0994,-0.0939,-0.0985,-0.1108,-0.1138,-0.1167,-0.1153,-0.0886,-0.0886,-0.0854,-0.0854,-0.0854]},{"header":{"parameterUnit":"m.s-1","parameterCategory":2,"la1":30.2991,"la2":30.254,"lo1":-89.0895,"lo2":-89.0444,"dy":0.0017,"dx":0.0017,"nx":28,"ny":28,"refTime":"2025-07-24T03:00:00:Z","depth":"0","parameterNumber":3,"parameterNumberName":"V-component_of_CURRENTS"},"data":[0,0,0,0,0,0,0,0,0,0,0,0,0,0,0,0,0,0,0,0,0,0,0,0,0,0,0,0,0,0,0,0,0,0,0,0,0,0,0,0,0,0,0,0,0,0,0,0,0,0,0,0,0,0,0,0,0,0,-0.0496,-0.0494,0,-0.0328,-0.0326,-0.0324,-0.0175,-0.0174,-0.0172,-0.0171,0.0187,0.0195,0.0203,0,0,0,0,0,0,0,0,0,0,0,0,0,-0.0604,-0.0603,-0.0496,-0.0494,-0.0493,-0.0329,-0.0326,-0.0323,-0.0175,-0.0174,-0.0172,-0.0171,0.0184,0.0194,0.0204,0,0,0,0,0,0,0,0,0,0,0,0,0,-0.0504,-0.0603,-0.0496,-0.0403,-0.0393,-0.0329,-0.0326,-0.0322,-0.0175,-0.0173,-0.0172,-0.017,0.018,0.0193,0.0205,0.0245,0,0,0.0243,0.0249,0,0,0,0,0,0,0,0,-0.051,-0.05,-0.0418,-0.0409,-0.0398,-0.0275,-0.0233,-0.0125,-0.0176,-0.0253,-0.0171,-0.0169,0.0045,0.0069,0.0101,0.0261,0.0277,0.0244,0.0252,0.0257,0.0261,0,0,0,0,0,0,0,-0.0517,-0.0506,-0.0424,-0.0417,-0.0405,-0.0341,-0.0325,-0.0212,-0.0109,-0.0246,-0.0236,-0.0226,0.0053,0.0088,0.0111,0.0282,0.0244,0.0255,0.0263,0.0268,0.0503,0.0502,0,0,0,0,0,0,-0.0555,-0.0513,-0.043,-0.042,-0.0457,-0.0342,-0.0323,-0.0312,-0.0114,-0.0085,-0.0228,-0.022,0.0066,0.0096,0.0124,0.0172,0.0257,0.0269,0.0276,0.0504,0.0503,0.0501,0,0,0,0,0,0,-0.0558,-0.0549,-0.0436,-0.0467,-0.0448,-0.0343,-0.0331,-0.031,-0.027,-0.0104,-0.0069,-0.021,0.0069,0.0107,0.0204,0.0188,0.0275,0.0286,0.0506,0.0504,0.0502,0.0277,0,0,0,0,0,0,-0.0562,-0.0551,-0.0555,-0.047,-0.0448,-0.0402,-0.0333,-0.0308,-0.027,-0.0257,-0.0077,-0.0042,0.0073,0.0184,0.0216,0.0207,0.0296,0.0507,0.0505,0.0503,0.0286,0.0267,0.0252,0,0,0,0,0,-0.0566,-0.057,-0.0556,-0.0546,-0.0457,-0.0403,-0.0386,-0.03,-0.0272,-0.0257,-0.0155,-0.0047,0.0193,0.0192,0.0231,0.0225,0.0508,0.0506,0.0503,0.0293,0.0271,0.0252,0,0,0,0,0,0,-0.0605,-0.0554,-0.0536,-0.0521,-0.0475,-0.038,-0.0358,-0.0316,-0.0227,-0.021,-0.0061,-0.002,0.0057,0.0169,0.0164,0.0285,0.0368,0.0373,0.0196,0.0177,0.016,0.0167,0.0306,0,0,0,0,0,-0.0627,-0.0621,-0.0562,-0.0551,-0.0534,-0.0457,-0.0426,-0.0375,-0.029,-0.0249,-0.0138,-0.0018,0.0073,0.0144,0.0248,0.032,0.0415,0.0341,0.0324,0.0308,0.0339,0.0417,0.0409,0.0492,0.0492,0.0492,0,0,-0.0638,-0.0612,-0.0606,-0.0562,-0.0515,-0.0496,-0.043,-0.039,-0.0368,-0.0222,-0.0156,-0.0073,0.0074,0.0142,0.0189,0.0238,0.0328,0.0305,0.029,0.0331,0.0413,0.0405,0.0398,0.049,0.049,0.0491,0,0,-0.0666,-0.064,-0.0648,-0.062,-0.0573,-0.0525,-0.0526,-0.0449,-0.0405,-0.0347,-0.0254,-0.0191,-0.0028,0.0054,0.0121,0.0078,0.0223,0.0112,0.0051,0.0123,0.0117,0.0113,0.0185,0.019,0.0115,0.0115,0.0115,0,-0.0684,-0.0686,-0.064,-0.0641,-0.062,-0.0551,-0.0549,-0.0502,-0.0406,-0.037,-0.0343,-0.0164,-0.0067,0.0019,-0.0011,0.0041,0.0111,0.0107,0.0098,0.0097,0.0097,0.0173,0.0181,0.0104,0.0105,0.0106,0.0107,0,-0.0718,-0.0719,-0.0719,-0.0702,-0.0673,-0.066,-0.06,-0.0568,-0.0521,-0.0465,-0.0388,-0.0284,-0.0164,-0.0155,-0.0091,-0.0049,0.0007,0.0049,0.0141,0.0074,0.0159,0.0171,0.0088,0.0092,0.0095,0.0098,0,0,-0.0753,-0.0749,-0.0748,-0.0747,-0.0705,-0.0677,-0.0656,-0.0601,-0.0561,-0.0502,-0.0446,-0.0363,-0.0308,-0.023,-0.0162,-0.0112,-0.01,-0.0044,-0.0035,0.0013,0.0064,0.0096,0.0114,-0.0066,-0.0065,-0.0063,0.0109,0,-0.0793,-0.0822,-0.0798,-0.0801,-0.0805,-0.074,-0.0711,-0.0651,-0.0588,-0.0517,-0.0438,-0.0348,-0.0335,-0.028,-0.0247,-0.0111,-0.0071,-0.0149,0.014,0.0149,0.0173,0.0128,0.0164,0.032,0.0122,0.0124,0.0126,0,-0.0836,-0.0846,-0.0879,-0.0841,-0.083,-0.0815,-0.0739,-0.0698,-0.0596,-0.0541,-0.0469,-0.0383,-0.03,-0.0283,-0.0113,-0.0162,-0.0069,0.0015,0.0025,0.0158,0.0205,0.0367,0.0352,0.0463,0.0146,0.0145,0.0143,0,-0.0893,-0.0889,-0.092,-0.0915,-0.0871,-0.0851,-0.0801,-0.0707,-0.0608,-0.054,-0.0446,-0.0377,-0.0263,-0.018,-0.003,-0.0059,0.0169,0.0162,0.0277,0.0282,0.0429,0.0443,0.0554,0.0276,0.0276,0.0275,0.0275,0,-0.0957,-0.0968,-0.0946,-0.0966,-0.09,-0.0885,-0.0776,-0.0728,-0.0606,-0.0455,-0.0447,-0.0304,-0.0226,-0.0083,-0.001,0.0182,0.0191,0.0281,0.0331,0.0346,0.035,0.0552,0.0587,0.0282,0.028,0.0279,0.0278,0,-0.1026,-0.1032,-0.1016,-0.0975,-0.093,-0.0876,-0.068,-0.0581,-0.0526,-0.0331,-0.0291,-0.0185,-0.0042,0.0039,0.0215,0.027,0.049,0.047,0.0474,0.052,0.069,0.071,0.093,0.1014,0.0617,0.0618,0.062,0,-0.1076,-0.1106,-0.0993,-0.0886,-0.0854,-0.0736,-0.0606,-0.0522,-0.0399,-0.0219,-0.0113,0.0027,0.0173,0.0383,0.0442,0.0558,0.0623,0.0691,0.0627,0.0717,0.0778,0.0786,0.0841,0.0729,0.0731,0.0733,0.0734,0,-0.1111,-0.1066,-0.098,-0.0795,-0.0646,-0.0492,-0.0338,-0.024,-0.0123,-0.0004,0.0178,0.0283,0.0444,0.0562,0.0653,0.072,0.0775,0.0734,0.0846,0.0893,0.0899,0.0998,0.0592,0.0751,0.075,0.0748,0.0748,0.0747,-0.1036,-0.0922,-0.0768,-0.0571,-0.0422,-0.0273,-0.0145,-0.0028,0.0131,0.0278,0.0377,0.0517,0.0739,0.0837,0.0879,0.0986,0.094,0.1044,0.1069,0.1074,0.1131,0.0749,0.0942,0.0942,0.0941,0.0941,0.0941,0,-0.0807,-0.0678,-0.0532,-0.0281,-0.0134,-0.0117,0.0053,0.015,0.029,0.0394,0.0532,0.0818,0.0978,0.1087,0.1222,0.1317,0.1332,0.1377,0.1406,0.1452,0.1151,0.1129,0.1349,0.1349,0.1349,0.1348,0.1348,0.1348,-0.0656,-0.0391,-0.0317,-0.0028,0.0076,0.0252,0.0326,0.0393,0.0466,0.0628,0.0737,0.0866,0.1142,0.144,0.1599,0.1623,0.1752,0.1724,0.1798,0.1582,0.1552,0.1524,0.1512,0.1809,0.1809,0.2105,0.2107,0.211]}],[{"header":{"parameterUnit":"m.s-1","parameterCategory":2,"la1":30.2991,"la2":30.254,"lo1":-89.0895,"lo2":-89.0444,"dy":0.0017,"dx":0.0017,"nx":28,"ny":28,"refTime":"2025-07-24T03:00:00:Z","depth":"2","parameterNumber":2,"parameterNumberName":"U-component_of_CURRENTS"},"data":[0,0,0,0,0,0,0,0,0,0,0,0,0,0,0,0,0,0,0,0,0,0,0,0,0,0,0,0,0,0,0,0,0,0,0,0,0,0,0,0,0,0,0,0,0,0,0,0,0,0,0,0,0,0,0,0,0,0,-0.2207,-0.2208,0,-0.2224,-0.2224,-0.2224,-0.2281,-0.2283,-0.2284,-0.2286,-0.2345,-0.2345,-0.2345,0,0,0,0,0,0,0,0,0,0,0,0,0,-0.218,-0.218,-0.2207,-0.2208,-0.2208,-0.2224,-0.2224,-0.2224,-0.2281,-0.2283,-0.2285,-0.2287,-0.2345,-0.2345,-0.2345,0,0,0,0,0,0,0,0,0,0,0,0,0,-0.2189,-0.218,-0.2207,-0.2242,-0.2246,-0.2225,-0.2224,-0.2224,-0.228,-0.2283,-0.2285,-0.2288,-0.2345,-0.2345,-0.2345,-0.2295,0,0,-0.2345,-0.2345,0,0,0,0,0,0,0,0,-0.2189,-0.219,-0.2236,-0.224,-0.2244,-0.2257,-0.2237,-0.2251,-0.228,-0.2262,-0.2286,-0.2289,-0.2321,-0.2323,-0.2314,-0.2298,-0.23,-0.2345,-0.2345,-0.2345,-0.2345,0,0,0,0,0,0,0,-0.2188,-0.2189,-0.2209,-0.2237,-0.2241,-0.2242,-0.2246,-0.2239,-0.2274,-0.2264,-0.2269,-0.2278,-0.2323,-0.2313,-0.2316,-0.2301,-0.2345,-0.2345,-0.2345,-0.2345,-0.2255,-0.2253,0,0,0,0,0,0,-0.2194,-0.2188,-0.2209,-0.221,-0.2227,-0.2241,-0.2245,-0.2247,-0.2274,-0.2281,-0.2275,-0.228,-0.2312,-0.2316,-0.2318,-0.2319,-0.2345,-0.2345,-0.2345,-0.2257,-0.2254,-0.2252,0,0,0,0,0,0,-0.2193,-0.2196,-0.2208,-0.2204,-0.2206,-0.224,-0.224,-0.2246,-0.2253,-0.2283,-0.2291,-0.228,-0.2314,-0.2318,-0.2312,-0.232,-0.2345,-0.2345,-0.226,-0.2256,-0.2253,-0.2283,0,0,0,0,0,0,-0.2192,-0.2195,-0.2189,-0.2204,-0.2207,-0.2206,-0.2238,-0.2244,-0.2256,-0.2262,-0.2289,-0.2296,-0.2317,-0.2311,-0.2312,-0.232,-0.2346,-0.2263,-0.2258,-0.2254,-0.2285,-0.2281,-0.2277,0,0,0,0,0,-0.2191,-0.2176,-0.2188,-0.2191,-0.22,-0.2206,-0.2206,-0.2235,-0.2253,-0.2251,-0.2262,-0.2296,-0.2283,-0.2309,-0.231,-0.232,-0.2265,-0.226,-0.2255,-0.2287,-0.2281,-0.2277,0,0,0,0,0,0,-0.2155,-0.2181,-0.2195,-0.2187,-0.2201,-0.2218,-0.2211,-0.2231,-0.2233,-0.224,-0.227,-0.2276,-0.2276,-0.2268,-0.2297,-0.2269,-0.2277,-0.2271,-0.2301,-0.2296,-0.2292,-0.232,-0.2346,0,0,0,0,0,-0.2144,-0.2142,-0.2168,-0.2159,-0.2165,-0.2185,-0.2188,-0.221,-0.222,-0.2224,-0.2243,-0.2245,-0.2245,-0.2251,-0.2246,-0.2228,-0.2223,-0.2226,-0.2222,-0.2219,-0.2235,-0.2228,-0.2228,-0.2234,-0.2234,-0.2234,0,0,-0.2127,-0.214,-0.2138,-0.2151,-0.2159,-0.2173,-0.2192,-0.2197,-0.2214,-0.2227,-0.224,-0.2236,-0.2233,-0.2226,-0.2224,-0.223,-0.2203,-0.2212,-0.2211,-0.2229,-0.2223,-0.2223,-0.2223,-0.223,-0.2231,-0.2232,0,0,-0.2103,-0.2102,-0.2103,-0.2116,-0.2137,-0.2151,-0.2156,-0.2175,-0.2189,-0.2187,-0.2205,-0.2204,-0.2194,-0.2207,-0.2208,-0.2167,-0.2183,-0.2154,-0.2169,-0.2161,-0.2163,-0.2164,-0.2125,-0.2123,-0.2153,-0.2153,-0.2153,0,-0.2086,-0.2095,-0.2101,-0.2113,-0.213,-0.2146,-0.2162,-0.2167,-0.2184,-0.2194,-0.2194,-0.2188,-0.219,-0.2201,-0.219,-0.2169,-0.2152,-0.2202,-0.2163,-0.2164,-0.2165,-0.2125,-0.2123,-0.2154,-0.2154,-0.2154,-0.2154,0,-0.2077,-0.2088,-0.2085,-0.2114,-0.2125,-0.2133,-0.2158,-0.2164,-0.2176,-0.2191,-0.2196,-0.2186,-0.2191,-0.218,-0.218,-0.2182,-0.2162,-0.2166,-0.2194,-0.2168,-0.2125,-0.2122,-0.2155,-0.2155,-0.2155,-0.2154,0,0,-0.2036,-0.2076,-0.2077,-0.2102,-0.2131,-0.2141,-0.2159,-0.2185,-0.2204,-0.2203,-0.2223,-0.2214,-0.2215,-0.2213,-0.2208,-0.2202,-0.2181,-0.2188,-0.2188,-0.2182,-0.2141,-0.2041,-0.2028,-0.2187,-0.2188,-0.2188,-0.21,0,-0.2035,-0.2066,-0.2086,-0.2117,-0.2138,-0.2163,-0.2182,-0.2204,-0.2214,-0.2227,-0.2225,-0.223,-0.2225,-0.2224,-0.2221,-0.2197,-0.2178,-0.2203,-0.2139,-0.2137,-0.208,-0.2023,-0.1884,-0.1787,-0.2097,-0.2096,-0.2096,0,-0.2027,-0.2054,-0.2087,-0.214,-0.215,-0.2167,-0.2205,-0.2226,-0.2246,-0.2253,-0.2262,-0.2259,-0.2256,-0.2245,-0.221,-0.2226,-0.2187,-0.2161,-0.2157,-0.2061,-0.2032,-0.1864,-0.1769,-0.209,-0.2091,-0.2091,-0.2091,0,-0.2006,-0.2055,-0.2084,-0.2101,-0.2157,-0.2173,-0.2199,-0.2229,-0.2235,-0.2265,-0.2261,-0.2273,-0.2254,-0.2235,-0.2177,-0.2196,-0.2118,-0.2136,-0.2005,-0.1996,-0.1863,-0.1842,-0.2104,-0.2104,-0.2104,-0.2104,-0.2105,0,-0.2002,-0.2024,-0.2076,-0.2093,-0.2107,-0.2166,-0.2176,-0.2203,-0.2234,-0.2234,-0.2268,-0.2254,-0.2251,-0.2205,-0.2172,-0.2059,-0.2109,-0.1995,-0.1968,-0.186,-0.1841,-0.2104,-0.2106,-0.2101,-0.2102,-0.2102,-0.2103,0,-0.1958,-0.2008,-0.2024,-0.2081,-0.2093,-0.2093,-0.2125,-0.2135,-0.2188,-0.2185,-0.2191,-0.2214,-0.2154,-0.212,-0.2063,-0.202,-0.1948,-0.1895,-0.1749,-0.1706,-0.1833,-0.1837,-0.1748,-0.1743,-0.174,-0.1737,-0.1734,0,-0.1939,-0.1948,-0.1972,-0.1964,-0.1979,-0.1996,-0.2004,-0.2078,-0.2091,-0.2149,-0.2138,-0.2103,-0.2044,-0.1916,-0.1821,-0.1711,-0.1812,-0.1544,-0.1562,-0.1815,-0.1798,-0.1807,-0.1814,-0.1381,-0.1376,-0.1372,-0.1368,0,-0.1863,-0.1861,-0.1858,-0.1843,-0.1845,-0.1854,-0.1884,-0.1889,-0.1985,-0.1994,-0.2004,-0.1971,-0.1847,-0.1662,-0.1516,-0.1454,-0.1557,-0.1452,-0.1746,-0.1497,-0.1463,-0.1449,-0.1469,-0.133,-0.1334,-0.1337,-0.1339,-0.134,-0.1758,-0.1716,-0.1701,-0.1679,-0.1688,-0.1695,-0.166,-0.1722,-0.1724,-0.1721,-0.1811,-0.1712,-0.1659,-0.1344,-0.1236,-0.1143,-0.1258,-0.1227,-0.1243,-0.1263,-0.124,-0.1203,-0.1015,-0.1017,-0.1018,-0.102,-0.1021,0,-0.16,-0.1571,-0.1543,-0.1508,-0.1474,-0.1538,-0.1557,-0.1513,-0.1475,-0.1498,-0.1483,-0.1314,-0.1156,-0.1097,-0.0876,-0.0826,-0.0849,-0.0807,-0.0852,-0.0888,-0.0921,-0.0885,-0.0563,-0.0562,-0.0561,-0.056,0,0,-0.1505,-0.1413,-0.1407,-0.1296,-0.1287,-0.1205,-0.119,-0.1161,-0.1143,-0.1073,-0.1027,-0.1101,-0.1076,-0.0844,-0.0761,-0.0622,-0.0757,-0.0586,-0.095,-0.1039,-0.1071,-0.1151,-0.1134,0,0,0,0,0]},{"header":{"parameterUnit":"m.s-1","parameterCategory":2,"la1":30.2991,"la2":30.254,"lo1":-89.0895,"lo2":-89.0444,"dy":0.0017,"dx":0.0017,"nx":28,"ny":28,"refTime":"2025-07-24T03:00:00:Z","depth":"2","parameterNumber":3,"parameterNumberName":"V-component_of_CURRENTS"},"data":[0,0,0,0,0,0,0,0,0,0,0,0,0,0,0,0,0,0,0,0,0,0,0,0,0,0,0,0,0,0,0,0,0,0,0,0,0,0,0,0,0,0,0,0,0,0,0,0,0,0,0,0,0,0,0,0,0,0,-0.0409,-0.0408,0,-0.0277,-0.0275,-0.0274,-0.0206,-0.0206,-0.0206,-0.0206,-0.0096,-0.0093,-0.009,0,0,0,0,0,0,0,0,0,0,0,0,0,-0.0517,-0.0516,-0.0409,-0.0408,-0.0406,-0.0277,-0.0275,-0.0273,-0.0206,-0.0206,-0.0206,-0.0206,-0.0097,-0.0094,-0.009,0,0,0,0,0,0,0,0,0,0,0,0,0,-0.0435,-0.0515,-0.041,-0.0358,-0.0352,-0.0277,-0.0275,-0.0273,-0.0206,-0.0206,-0.0206,-0.0206,-0.0098,-0.0094,-0.009,-0.0063,0,0,-0.0076,-0.0074,0,0,0,0,0,0,0,0,-0.044,-0.0432,-0.0367,-0.0361,-0.0354,-0.0258,-0.0272,-0.0204,-0.0206,-0.0261,-0.0206,-0.0206,-0.0153,-0.0144,-0.0118,-0.0057,-0.0053,-0.0076,-0.0073,-0.0071,-0.007,0,0,0,0,0,0,0,-0.0446,-0.0436,-0.0356,-0.0365,-0.0357,-0.0311,-0.03,-0.0258,-0.0209,-0.0256,-0.0251,-0.0237,-0.015,-0.0122,-0.0115,-0.0051,-0.0076,-0.0072,-0.0069,-0.0068,0.0035,0.0035,0,0,0,0,0,0,-0.0468,-0.0442,-0.036,-0.0352,-0.0399,-0.0309,-0.0297,-0.0289,-0.0208,-0.0196,-0.0237,-0.0235,-0.013,-0.012,-0.0111,-0.008,-0.0071,-0.0067,-0.0065,0.0035,0.0035,0.0035,0,0,0,0,0,0,-0.0471,-0.0462,-0.0366,-0.0394,-0.0379,-0.0308,-0.0299,-0.0286,-0.0261,-0.0194,-0.0182,-0.0226,-0.0129,-0.0117,-0.008,-0.0076,-0.0065,-0.0061,0.0035,0.0035,0.0035,-0.0015,0,0,0,0,0,0,-0.0475,-0.0464,-0.0469,-0.0396,-0.0378,-0.0334,-0.0298,-0.0284,-0.0252,-0.0248,-0.018,-0.0169,-0.0129,-0.0087,-0.0076,-0.0069,-0.0058,0.0035,0.0035,0.0035,-0.0014,-0.0017,-0.002,0,0,0,0,0,-0.0479,-0.0482,-0.047,-0.046,-0.0386,-0.0334,-0.0321,-0.0269,-0.0252,-0.0246,-0.02,-0.0171,-0.0078,-0.0083,-0.007,-0.0062,0.0035,0.0035,0.0035,-0.0012,-0.0016,-0.002,0,0,0,0,0,0,-0.0523,-0.0473,-0.0458,-0.0445,-0.0401,-0.0324,-0.031,-0.0276,-0.0231,-0.0229,-0.0169,-0.0155,-0.0118,-0.0087,-0.0094,-0.0033,-0.0017,-0.0014,-0.0058,-0.0061,-0.0064,-0.0082,-0.0054,0,0,0,0,0,-0.0539,-0.0532,-0.0474,-0.0464,-0.0447,-0.0382,-0.0355,-0.0322,-0.027,-0.025,-0.0202,-0.0152,-0.0105,-0.0083,-0.0039,-0.0007,0.0029,0.0006,0.0003,0.0,-0.0006,0.0054,0.0056,0.0036,0.0036,0.0036,0,0,-0.055,-0.0524,-0.0518,-0.0474,-0.0435,-0.0411,-0.0366,-0.0332,-0.0309,-0.0246,-0.0208,-0.016,-0.01,-0.0061,-0.0042,-0.0035,0.0024,0.0001,-0.0002,-0.0007,0.0055,0.0057,0.0059,0.0036,0.0036,0.0036,0,0,-0.0569,-0.0551,-0.0552,-0.0523,-0.0477,-0.0436,-0.0433,-0.0365,-0.0335,-0.0295,-0.0241,-0.0195,-0.0129,-0.0078,-0.0046,-0.0039,0.0007,-0.0027,-0.0055,0.0003,0.0005,0.0007,0.005,0.0057,-0.003,-0.003,-0.003,0,-0.0585,-0.0579,-0.0542,-0.0534,-0.0512,-0.0455,-0.0445,-0.0404,-0.0333,-0.0308,-0.0296,-0.0182,-0.0134,-0.0072,-0.0071,-0.0045,-0.0012,-0.0048,-0.0001,0.0002,0.0005,0.0049,0.0057,-0.0032,-0.0032,-0.0032,-0.0031,0,-0.0601,-0.0596,-0.0593,-0.0568,-0.0542,-0.0524,-0.0469,-0.0442,-0.0404,-0.0356,-0.0295,-0.0224,-0.0159,-0.0133,-0.01,-0.005,-0.0035,-0.0012,0.0005,0.0004,0.005,0.0059,-0.0036,-0.0035,-0.0034,-0.0033,0,0,-0.0629,-0.061,-0.0609,-0.061,-0.0561,-0.0541,-0.0511,-0.046,-0.0437,-0.0374,-0.0334,-0.0252,-0.0214,-0.0175,-0.012,-0.0071,-0.002,-0.0042,-0.0038,-0.0005,0.0098,0.0113,0.0124,0.0011,0.0012,0.0013,0.0118,0,-0.065,-0.0661,-0.0634,-0.0633,-0.0633,-0.0579,-0.0553,-0.0502,-0.0451,-0.0401,-0.0323,-0.0265,-0.0228,-0.0195,-0.0143,-0.0045,0.0002,-0.0051,0.0099,0.0103,0.0112,0.0135,0.011,0.0202,0.0128,0.0129,0.013,0,-0.0673,-0.0678,-0.0693,-0.0675,-0.0668,-0.0656,-0.0609,-0.0576,-0.0493,-0.0452,-0.0385,-0.0317,-0.0232,-0.0205,-0.0053,-0.0091,-0.0009,0.0062,0.0069,0.0106,0.0135,0.0194,0.0222,0.0146,0.0145,0.0144,0.0143,0,-0.0725,-0.0717,-0.0737,-0.0731,-0.0699,-0.0692,-0.0667,-0.0596,-0.0574,-0.0482,-0.0453,-0.0341,-0.0278,-0.0167,-0.0026,-0.0036,0.0139,0.0151,0.0241,0.0243,0.0263,0.0264,0.0253,0.0253,0.0253,0.0253,0.0252,0,-0.0767,-0.0778,-0.0768,-0.0781,-0.0797,-0.0747,-0.0746,-0.0696,-0.0633,-0.0609,-0.049,-0.0437,-0.0266,-0.0145,-0.003,0.0134,0.0141,0.024,0.0276,0.0244,0.0242,0.0225,0.022,0.0257,0.0256,0.0255,0.0254,0,-0.0823,-0.0818,-0.0843,-0.0829,-0.0829,-0.0842,-0.0822,-0.0813,-0.0735,-0.0699,-0.0672,-0.0502,-0.0328,-0.0157,0.0048,0.0136,0.0289,0.0345,0.0287,0.0314,0.035,0.0342,0.0452,0.0454,0.0455,0.0456,0.0457,0,-0.0856,-0.0876,-0.0894,-0.092,-0.0921,-0.0934,-0.094,-0.088,-0.0869,-0.0739,-0.0724,-0.0534,-0.0398,-0.0086,0.0123,0.034,0.0342,0.0428,0.0406,0.035,0.0373,0.0363,0.0353,0.0414,0.0415,0.0415,0.0415,0,-0.091,-0.0917,-0.0939,-0.0992,-0.1022,-0.105,-0.1052,-0.1059,-0.0977,-0.0922,-0.0797,-0.0668,-0.0344,-0.0083,0.0209,0.033,0.0389,0.0442,0.0426,0.0359,0.0321,0.0341,0.0332,0.0419,0.0419,0.0418,0.0418,0.0418,-0.0944,-0.0978,-0.1006,-0.1055,-0.1099,-0.1135,-0.1147,-0.1132,-0.1102,-0.0976,-0.0877,-0.0644,-0.0385,0.0056,0.0252,0.0453,0.0449,0.0489,0.0485,0.0482,0.045,0.0415,0.0525,0.0525,0.0525,0.0525,0.0525,0,-0.0977,-0.1009,-0.106,-0.1116,-0.1167,-0.1173,-0.1192,-0.1166,-0.1121,-0.098,-0.0851,-0.0559,-0.0262,0.0032,0.0347,0.0506,0.0495,0.0533,0.0483,0.0478,0.0475,0.044,0.0514,0.0515,0.0515,0.0515,0,0,-0.0996,-0.1045,-0.1067,-0.1149,-0.1189,-0.1221,-0.1225,-0.1168,-0.1059,-0.0895,-0.072,-0.0542,-0.0207,-0.0004,0.0209,0.0384,0.0389,0.04,0.0392,0.0305,0.0299,0.0435,0.0376,0,0,0,0,0]}],[{"header":{"parameterUnit":"m.s-1","parameterCategory":2,"la1":30.2991,"la2":30.254,"lo1":-89.0895,"lo2":-89.0444,"dy":0.0017,"dx":0.0017,"nx":28,"ny":28,"refTime":"2025-07-24T03:00:00:Z","depth":"4","parameterNumber":2,"parameterNumberName":"U-component_of_CURRENTS"},"data":[0,0,0,0,0,0,0,0,0,0,0,0,0,0,0,0,0,0,0,0,0,0,0,0,0,0,0,0,0,0,0,0,0,0,0,0,0,0,0,0,0,0,0,0,0,0,0,0,0,0,0,0,0,0,0,0,0,0,-0.1612,-0.1612,0,-0.1618,-0.1617,-0.1617,-0.163,-0.1631,-0.1632,-0.1633,-0.1605,-0.1603,-0.1602,0,0,0,0,0,0,0,0,0,0,0,0,0,-0.1563,-0.1563,-0.1612,-0.1612,-0.1613,-0.1618,-0.1617,-0.1617,-0.163,-0.1631,-0.1632,-0.1633,-0.1605,-0.1604,-0.1602,0,0,0,0,0,0,0,0,0,0,0,0,0,-0.1572,-0.1563,-0.1612,-0.1625,-0.1626,-0.1618,-0.1617,-0.1617,-0.163,-0.1631,-0.1632,-0.1633,-0.1606,-0.1604,-0.1602,-0.1563,0,0,-0.1595,-0.1594,0,0,0,0,0,0,0,0,-0.1572,-0.1573,-0.1622,-0.1624,-0.1626,-0.163,-0.159,-0.1599,-0.1629,-0.1622,-0.1633,-0.1634,-0.1613,-0.161,-0.1601,-0.1562,-0.1561,-0.1595,-0.1593,-0.1592,-0.1592,0,0,0,0,0,0,0,-0.1571,-0.1573,-0.1608,-0.1623,-0.1625,-0.1614,-0.1616,-0.1591,-0.1605,-0.1623,-0.1625,-0.1635,-0.1613,-0.1603,-0.16,-0.156,-0.1595,-0.1593,-0.1591,-0.159,-0.1566,-0.1567,0,0,0,0,0,0,-0.1584,-0.1572,-0.1608,-0.1609,-0.1608,-0.1614,-0.1617,-0.1622,-0.1606,-0.1607,-0.1634,-0.1636,-0.1606,-0.1603,-0.1599,-0.1632,-0.1592,-0.159,-0.1589,-0.1565,-0.1566,-0.1567,0,0,0,0,0,0,-0.1582,-0.1586,-0.1608,-0.1596,-0.1598,-0.1615,-0.162,-0.1622,-0.1643,-0.1616,-0.1616,-0.1658,-0.1607,-0.1602,-0.1606,-0.1628,-0.1589,-0.1587,-0.1564,-0.1566,-0.1566,-0.1647,0,0,0,0,0,0,-0.1581,-0.1586,-0.16,-0.1596,-0.16,-0.1621,-0.162,-0.1621,-0.1648,-0.1651,-0.1636,-0.1633,-0.1607,-0.161,-0.1604,-0.1625,-0.1585,-0.1564,-0.1565,-0.1566,-0.1644,-0.1651,-0.1657,0,0,0,0,0,-0.1579,-0.1583,-0.16,-0.1605,-0.1617,-0.1623,-0.1623,-0.1634,-0.1649,-0.1657,-0.1655,-0.1635,-0.1614,-0.1609,-0.1602,-0.1622,-0.1563,-0.1565,-0.1566,-0.1641,-0.1649,-0.1657,0,0,0,0,0,0,-0.1562,-0.1586,-0.1604,-0.1615,-0.1633,-0.1628,-0.1636,-0.1651,-0.1654,-0.1663,-0.1641,-0.1637,-0.1651,-0.1622,-0.1617,-0.1618,-0.1586,-0.1586,-0.1645,-0.1653,-0.1659,-0.1657,-0.1583,0,0,0,0,0,-0.1569,-0.1584,-0.1604,-0.1617,-0.1627,-0.164,-0.1649,-0.1661,-0.1663,-0.1668,-0.1664,-0.1653,-0.1644,-0.164,-0.1624,-0.162,-0.1592,-0.1629,-0.1636,-0.1642,-0.1635,-0.1633,-0.1639,-0.1572,-0.1572,-0.1572,0,0,-0.1569,-0.1583,-0.1594,-0.1617,-0.1627,-0.1641,-0.1647,-0.1667,-0.1685,-0.1661,-0.1684,-0.1679,-0.1649,-0.1653,-0.1655,-0.1636,-0.1644,-0.1644,-0.1649,-0.1639,-0.1635,-0.1642,-0.1648,-0.1573,-0.1573,-0.1573,0,0,-0.1566,-0.1588,-0.1602,-0.1618,-0.1649,-0.1655,-0.1672,-0.169,-0.1707,-0.1723,-0.1718,-0.1732,-0.1711,-0.1702,-0.1691,-0.1721,-0.1684,-0.172,-0.1748,-0.1748,-0.1754,-0.1758,-0.1725,-0.1726,-0.172,-0.172,-0.172,0,-0.157,-0.1588,-0.1606,-0.1622,-0.164,-0.1668,-0.1687,-0.1699,-0.1721,-0.1734,-0.1741,-0.1744,-0.1731,-0.1735,-0.175,-0.1738,-0.1719,-0.1724,-0.1758,-0.1762,-0.1765,-0.173,-0.173,-0.1724,-0.1723,-0.1723,-0.1723,0,-0.1573,-0.1599,-0.1605,-0.1639,-0.1657,-0.1677,-0.1704,-0.173,-0.1758,-0.1771,-0.1801,-0.1794,-0.1793,-0.18,-0.1782,-0.1804,-0.1777,-0.1773,-0.1741,-0.1777,-0.1737,-0.1736,-0.173,-0.1728,-0.1727,-0.1726,0,0,-0.1553,-0.1602,-0.1608,-0.1632,-0.1673,-0.1684,-0.1718,-0.175,-0.1775,-0.1806,-0.1831,-0.1842,-0.1853,-0.1841,-0.1837,-0.1841,-0.1855,-0.1821,-0.1819,-0.1793,-0.1833,-0.1705,-0.169,-0.1865,-0.1865,-0.1866,-0.1793,0,-0.1557,-0.159,-0.1615,-0.1653,-0.1672,-0.1709,-0.1735,-0.1769,-0.1797,-0.1823,-0.1841,-0.1858,-0.1863,-0.1872,-0.1883,-0.186,-0.1856,-0.1873,-0.1796,-0.1792,-0.1679,-0.1686,-0.1867,-0.1792,-0.1791,-0.1791,-0.1791,0,-0.1549,-0.1576,-0.1615,-0.1667,-0.1679,-0.1708,-0.1756,-0.1783,-0.1822,-0.1844,-0.1873,-0.1881,-0.1896,-0.1897,-0.1883,-0.1895,-0.1869,-0.1851,-0.1848,-0.1696,-0.1662,-0.1748,-0.1788,-0.1788,-0.1788,-0.1788,-0.1789,0,-0.1517,-0.1573,-0.1607,-0.1625,-0.1685,-0.1715,-0.1749,-0.1794,-0.1806,-0.1858,-0.1861,-0.1895,-0.1891,-0.1892,-0.1858,-0.1874,-0.1823,-0.1836,-0.1693,-0.1683,-0.1786,-0.1782,-0.1821,-0.1821,-0.1822,-0.1822,-0.1822,0,-0.1494,-0.1524,-0.1601,-0.1617,-0.1645,-0.1707,-0.1735,-0.1772,-0.1814,-0.181,-0.187,-0.1852,-0.1891,-0.1864,-0.1852,-0.1749,-0.1815,-0.1683,-0.1655,-0.182,-0.182,-0.1784,-0.1781,-0.1819,-0.182,-0.182,-0.1821,0,-0.1436,-0.1497,-0.1528,-0.1604,-0.1627,-0.1643,-0.1698,-0.1709,-0.1773,-0.1766,-0.1778,-0.1807,-0.1767,-0.1775,-0.1749,-0.1702,-0.1647,-0.1597,-0.1744,-0.1729,-0.1509,-0.151,-0.1424,-0.1419,-0.1415,-0.1411,-0.1408,0,-0.1404,-0.1419,-0.149,-0.1498,-0.1532,-0.1572,-0.1586,-0.1665,-0.1669,-0.1712,-0.1687,-0.1676,-0.1678,-0.153,-0.1569,-0.1515,-0.1506,-0.147,-0.1516,-0.1486,-0.1468,-0.1477,-0.1485,-0.1401,-0.14,-0.1399,-0.1398,0,-0.1319,-0.1355,-0.1372,-0.1393,-0.1415,-0.1428,-0.1466,-0.1454,-0.153,-0.1601,-0.1545,-0.1514,-0.1452,-0.143,-0.1386,-0.1361,-0.1497,-0.1425,-0.1434,-0.1477,-0.1457,-0.1446,-0.1458,-0.1383,-0.1385,-0.1387,-0.1387,0,-0.1237,-0.1219,-0.1248,-0.1249,-0.1279,-0.1269,-0.1309,-0.1312,-0.1328,-0.1403,-0.1375,-0.1381,-0.1425,-0.1345,-0.1312,-0.1267,-0.1258,-0.1239,-0.1259,-0.1276,-0.1262,-0.1217,-0.103,0,0,0,0,0,-0.1139,-0.1103,-0.11,-0.1092,-0.1126,-0.1145,-0.1213,-0.1265,-0.1344,-0.1266,-0.1323,-0.1268,-0.1207,-0.1217,-0.1135,-0.1234,-0.1259,-0.1135,-0.1248,-0.13,-0.1317,-0.1316,0,0,0,0,0,0,-0.1063,-0.105,-0.1046,-0.0966,-0.0942,-0.096,-0.1001,-0.1068,-0.1044,-0.1136,-0.1107,-0.1183,-0.1139,-0.1217,-0.11,-0.1103,-0.1148,-0.1156,-0.1153,-0.129,-0.1305,-0.1319,-0.1324,0,0,0,0,0]},{"header":{"parameterUnit":"m.s-1","parameterCategory":2,"la1":30.2991,"la2":30.254,"lo1":-89.0895,"lo2":-89.0444,"dy":0.0017,"dx":0.0017,"nx":28,"ny":28,"refTime":"2025-07-24T03:00:00:Z","depth":"4","parameterNumber":3,"parameterNumberName":"V-component_of_CURRENTS"},"data":[0,0,0,0,0,0,0,0,0,0,0,0,0,0,0,0,0,0,0,0,0,0,0,0,0,0,0,0,0,0,0,0,0,0,0,0,0,0,0,0,0,0,0,0,0,0,0,0,0,0,0,0,0,0,0,0,0,0,-0.0284,-0.0283,0,-0.0201,-0.02,-0.0199,-0.0169,-0.0169,-0.017,-0.017,-0.0161,-0.0161,-0.016,0,0,0,0,0,0,0,0,0,0,0,0,0,-0.0351,-0.0351,-0.0284,-0.0283,-0.0282,-0.0201,-0.02,-0.0198,-0.0169,-0.0169,-0.017,-0.017,-0.0161,-0.0161,-0.016,0,0,0,0,0,0,0,0,0,0,0,0,0,-0.0301,-0.0351,-0.0285,-0.0258,-0.0255,-0.0201,-0.02,-0.0198,-0.0169,-0.0169,-0.017,-0.017,-0.0162,-0.0161,-0.016,-0.0146,0,0,-0.0158,-0.0157,0,0,0,0,0,0,0,0,-0.0304,-0.0298,-0.0263,-0.026,-0.0256,-0.0196,-0.022,-0.0184,-0.0169,-0.0201,-0.017,-0.017,-0.0179,-0.0177,-0.0159,-0.0146,-0.0145,-0.0158,-0.0157,-0.0157,-0.0157,0,0,0,0,0,0,0,-0.0307,-0.0301,-0.0251,-0.0262,-0.0257,-0.0227,-0.0221,-0.0212,-0.019,-0.0199,-0.0196,-0.0187,-0.0178,-0.016,-0.0159,-0.0145,-0.0158,-0.0157,-0.0157,-0.0156,-0.0109,-0.0108,0,0,0,0,0,0,-0.032,-0.0305,-0.0254,-0.0249,-0.0281,-0.0225,-0.0219,-0.0215,-0.0189,-0.0184,-0.0186,-0.0186,-0.0161,-0.016,-0.0159,-0.0141,-0.0157,-0.0156,-0.0156,-0.011,-0.0109,-0.0108,0,0,0,0,0,0,-0.0322,-0.0317,-0.0257,-0.0275,-0.0265,-0.0224,-0.022,-0.0213,-0.0201,-0.0179,-0.0176,-0.0183,-0.0161,-0.016,-0.015,-0.0141,-0.0156,-0.0155,-0.0111,-0.0109,-0.0108,-0.0105,0,0,0,0,0,0,-0.0325,-0.0318,-0.0326,-0.0276,-0.0264,-0.0237,-0.0219,-0.0211,-0.0194,-0.0192,-0.0174,-0.0173,-0.0162,-0.0151,-0.0149,-0.014,-0.0155,-0.0112,-0.011,-0.0109,-0.0106,-0.0104,-0.0102,0,0,0,0,0,-0.0327,-0.0332,-0.0327,-0.0321,-0.0275,-0.0237,-0.0229,-0.0201,-0.0193,-0.0191,-0.0171,-0.0174,-0.014,-0.0149,-0.0147,-0.0138,-0.0112,-0.0111,-0.0109,-0.0107,-0.0105,-0.0102,0,0,0,0,0,0,-0.0361,-0.0328,-0.0321,-0.0316,-0.0286,-0.0232,-0.0227,-0.0205,-0.0185,-0.0189,-0.0167,-0.0165,-0.0149,-0.0144,-0.0155,-0.0118,-0.0125,-0.0123,-0.0125,-0.0122,-0.012,-0.0138,-0.0154,0,0,0,0,0,-0.0374,-0.0373,-0.0332,-0.0329,-0.0318,-0.0275,-0.0258,-0.0238,-0.0208,-0.02,-0.0181,-0.0162,-0.0137,-0.0132,-0.0114,-0.0101,-0.009,-0.0092,-0.0089,-0.0088,-0.0099,-0.0056,-0.0051,-0.0102,-0.0102,-0.0102,0,0,-0.0384,-0.0368,-0.0366,-0.0337,-0.0313,-0.0292,-0.0266,-0.0245,-0.0227,-0.0204,-0.0183,-0.0157,-0.0131,-0.0107,-0.01,-0.0106,-0.0067,-0.0086,-0.0084,-0.0097,-0.0054,-0.0049,-0.0045,-0.0101,-0.0101,-0.0101,0,0,-0.0396,-0.0393,-0.0392,-0.0372,-0.0342,-0.0314,-0.0311,-0.0264,-0.0247,-0.0221,-0.019,-0.0158,-0.0135,-0.01,-0.0082,-0.006,-0.0056,-0.0056,-0.0064,-0.0021,-0.0017,-0.0013,0.0005,0.001,-0.0058,-0.0058,-0.0058,0,-0.0411,-0.0406,-0.0385,-0.0375,-0.0362,-0.0326,-0.0316,-0.0287,-0.0241,-0.0228,-0.0223,-0.0153,-0.0127,-0.0082,-0.0068,-0.0055,-0.0043,-0.0076,-0.0019,-0.0015,-0.0011,0.0006,0.0012,-0.0057,-0.0057,-0.0057,-0.0057,0,-0.0413,-0.0414,-0.0411,-0.0391,-0.0374,-0.0363,-0.0323,-0.0306,-0.0283,-0.0251,-0.0211,-0.0161,-0.0124,-0.0097,-0.0077,-0.003,-0.0034,-0.002,-0.0029,-0.0006,0.0011,0.0017,-0.0057,-0.0057,-0.0057,-0.0057,0,0,-0.043,-0.0417,-0.0417,-0.0424,-0.0386,-0.0377,-0.0349,-0.0316,-0.0309,-0.0257,-0.0237,-0.0164,-0.0141,-0.0118,-0.0076,-0.0032,0.0018,-0.002,-0.0017,-0.0009,0.0092,0.0076,0.0081,0.0042,0.0043,0.0044,0.0092,0,-0.0438,-0.0446,-0.0423,-0.0429,-0.0432,-0.0397,-0.0379,-0.0348,-0.0316,-0.029,-0.0225,-0.0192,-0.0147,-0.0131,-0.0075,-0.001,0.0034,0.0002,0.0074,0.0075,0.0054,0.0088,0.0048,0.0096,0.0098,0.0099,0.01,0,-0.0443,-0.0453,-0.0466,-0.0471,-0.0468,-0.0463,-0.0449,-0.0425,-0.0372,-0.0348,-0.0296,-0.025,-0.0176,-0.0143,-0.0023,-0.0049,0.0017,0.0073,0.0076,0.006,0.0071,0.0071,0.0111,0.011,0.0109,0.0108,0.0108,0,-0.0483,-0.0483,-0.0507,-0.0505,-0.0495,-0.05,-0.0492,-0.045,-0.0445,-0.0387,-0.038,-0.0286,-0.0249,-0.0147,-0.0031,-0.0029,0.0093,0.0112,0.0161,0.016,0.0156,0.0152,0.02,0.02,0.02,0.02,0.02,0,-0.0504,-0.0524,-0.0538,-0.0553,-0.0591,-0.0558,-0.0583,-0.0553,-0.052,-0.0517,-0.0423,-0.0398,-0.0247,-0.0158,-0.005,0.0066,0.0081,0.0159,0.0177,0.0156,0.0151,0.016,0.0155,0.0201,0.0201,0.0201,0.02,0,-0.0541,-0.0545,-0.0585,-0.0602,-0.0614,-0.0645,-0.0661,-0.0669,-0.0625,-0.0617,-0.0602,-0.0486,-0.0361,-0.0212,-0.0046,0.003,0.0152,0.0193,0.0142,0.0156,0.0191,0.0185,0.0243,0.0243,0.0243,0.0243,0.0243,0,-0.0559,-0.0584,-0.0639,-0.0676,-0.0691,-0.0732,-0.0755,-0.0731,-0.0732,-0.067,-0.0665,-0.0546,-0.0453,-0.0233,-0.0076,0.0124,0.0159,0.0204,0.022,0.0186,0.0198,0.0193,0.0187,0.0243,0.0243,0.0243,0.0243,0,-0.0599,-0.0624,-0.0661,-0.0735,-0.0783,-0.083,-0.0856,-0.0866,-0.0823,-0.0801,-0.0706,-0.0575,-0.0432,-0.0242,-0.0083,0.0061,0.0164,0.0204,0.0205,0.0221,0.0187,0.0197,0.0192,0.0242,0.0242,0.0242,0.0242,0,-0.0632,-0.0673,-0.0722,-0.0782,-0.0849,-0.0887,-0.0904,-0.0886,-0.0877,-0.0794,-0.0773,-0.0594,-0.0493,-0.0275,-0.0134,0.0011,0.0051,0.0086,0.0094,0.0096,0.0046,-0.002,-0.0012,0,0,0,0,0,-0.0658,-0.0696,-0.0757,-0.082,-0.0884,-0.0913,-0.0944,-0.0942,-0.0916,-0.0855,-0.0805,-0.0662,-0.0427,-0.0324,-0.0179,-0.0139,0.0065,0.0031,0.0107,0.0242,0.0242,0.0208,0,0,0,0,0,0,-0.0678,-0.0738,-0.0756,-0.0829,-0.0872,-0.0932,-0.0951,-0.0934,-0.0887,-0.0842,-0.071,-0.0646,-0.041,-0.0503,-0.0179,-0.0137,-0.0075,0.0143,0.0145,0.0242,0.0242,0.0242,0.0207,0,0,0,0,0]}]]